Volver al catálogo

TOMORROW-S4

ActivoComunicacionesVLEO
NORAD 62386·PAYLOAD·🇺🇸 United States

Lanzado Dec 21, 2024 desde Vandenberg Space Force Base

Loading…

Próximos Pases (próximas 24 horas)

TLE

ActualizadoSource: Space-Track

Época: Sep 14, 2026, 03:32 UTC

1 62386U 24247K   26257.14788124  .00005488  00000-0  19458-3 0  9996
2 62386  44.9813 165.7552 0004489 198.2329 161.8394 15.30161196 96578

Sigue TOMORROW-S4 en tiempo real con AllMySat

Download on the App Store